Irkutsk Airport

Airport
ICAO code: 
UIII
IATA Code: 
IKT
Summary
ICAO Region: 
APAC
Territory: 
Location: 
Irkutsk, Russia,
Serving: 
Irkutsk
Elevation: 
1675 ft
Coordinates: 
Aerial View: 
52° 16' 5" N, 104° 23' 20" E
Metar
Observation
UIII 191300Z 18002MPS 9999 SCT015CB M08/M11 Q1021 R12/450145 NOSIG RMK QFE723/0964
Station
Irkutsk
Date/Time
2022-01-19 13:00:00
Wind direction
180°
Lowest cloud amount
scattered clouds
Temperature
-8°C
Dew point
-11°C
Humidity
78%
QNH
1021 hPa
Weather condition
n/a

Description

International and domestic airport serving the Russian city of Irkutsk.

Climatology

Cool continental climate/Subarctic climate (Köppen climate classification Dwc)

Runways

Designator Length Width Surface Rops
12/30 3165 45 CON Yes/Yes
Airport map: 
Aerial View: 

Accidents and Serious Incidents at or in the vicinity of UIII

SKYbrary Partners:

Safety knowledge contributed by: